Regional Weather Roundup
Issued by NWS

Home | Current Version | Previous Version | Graphics & Text | Print | Product List | Glossary Off
Versions: 1 2 3 4 5 6 7 8 9 10 11 12 13 14 15 16 17 18 19 20 21 22 23 24 25 26 27 28 29 30 31 32 33 34 35 36 37 38 39 40 41 42 43 44 45 46 47 48 49 50

000
ASUS43 KMPX 091601
RWRMN
WEATHER ROUNDUP FOR MINNESOTA
NATIONAL WEATHER SERVICE TWIN CITIES/CHANHASSEN MN
1000 AM CST TUE FEB 09 2016


NOTE: "FAIR" INDICATES FEW OR NO CLOUDS BELOW 12,000 FEET WITH NO
SIGNIFICANT WEATHER AND/OR OBSTRUCTIONS TO VISIBILITY. N/A MEANS
CURRENT SKY AND/OR WEATHER CONDITIONS ARE NOT AVAILABLE.

MNZ060>063-068>070-091700-
   Twin Cities Metro

CITY           SKY/WX    TMP DP  RH WIND       PRES   REMARKS
TWIN CITIES    MOSUNNY    9  -1  64 N17       30.12R WCI  -9
ST PAUL        SUNNY      8  -1  66 NW17      30.13R WCI -10
CRYSTAL        SUNNY      9  -1  64 NW15      30.12R WCI  -8
BLAINE         SUNNY     10   1  67 NW18G25   30.10R WCI  -8
LAKEVILLE      SUNNY      7   0  72 NW21      30.09R WCI -13
EDEN PRAIRIE   SUNNY      9  -2  61 NW20G25   30.10R WCI -10
SOUTH ST PAUL  SUNNY      9  -2  62 NW17      30.11R WCI  -9
LAKE ELMO      FAIR       9   0  66 N13G18    30.09R WCI  -7
$$
MNZ001>005-007-008-013>017-022>024-027-028-091700-
   Northwest Minnesota

CITY           SKY/WX    TMP DP  RH WIND       PRES   REMARKS
BEMIDJI        CLOUDY    -3  -6  84 NW10      30.20R WCI -20
HALLOCK        CLOUDY     7   0  72 N13       30.31S WCI  -9
ROSEAU         CLOUDY    -4  -9  77 N5        30.27R WCI -15
WARROAD        CLOUDY    -2  -6  84 NW7       30.25S WCI -16
CROOKSTON      SUNNY      9   3  78 N16       30.31R WCI  -9
FOSSTON        CLOUDY     5  -2  72 NW10      30.24R WCI -10
DETROIT LAKES  CLOUDY     7   3  85 N13G18    30.23R WCI  -9
MOORHEAD       CLOUDY    10   3  72 N20       30.30R WCI  -8
PARK RAPIDS    MOSUNNY    3  -4  72 NW12      30.17R WCI -13
MAHNOMEN       CLOUDY     4  -1  79 N10       30.24R WCI -11
$$
MNZ006-009>011-018-025>026-091700-
   North Central Minnesota

CITY           SKY/WX    TMP DP  RH WIND       PRES   REMARKS
BAUDETTE       CLOUDY     0  -7  72 N10       30.21S WCI -16
FLAG ISLAND    CLOUDY     1  -2  85 NW17      30.23S FOG     WCI -19
INTL FALLS     SUNNY     -2  -9  72 N13       30.17R WCI -20
WASKISH        SUNNY     -2  -6  84 NW6       30.21S WCI -14
LONGVILLE      MOSUNNY    1  -6  71 NW9G18    30.16R WCI -14
GRAND RAPIDS   MOSUNNY    0  -8  71 N17       30.11R WCI -21
CRANE LAKE     CLOUDY    -2  -9  71 NW8       30.14R WCI -17
ORR            MOSUNNY   -2  -9  71 NW8       30.08R WCI -17
COOK           SUNNY      0  -8  71 N10       30.09R WCI -17
WALKER         CLOUDY    -1  -6  77 NW8       30.17S WCI -15
$$
MNZ012-019>021-037-091700-
   Northeast Minnesota

CITY           SKY/WX    TMP DP  RH WIND       PRES   REMARKS
DULUTH         PTSUNNY    2  -6  69 NW17      30.01R WCI -18
ELY            CLOUDY     1  -6  71 NW7       30.02S HAZE    WCI -11
HIBBING        SUNNY     -1  -8  72 NW21      30.07R WCI -24
EVELETH        SUNNY      1  -6  71 NW12G23   30.06R WCI -15
DULUTH HARBOR  CLOUDY     7   0  72 NW14      30.11S WCI -10
TWO HARBORS    SUNNY      9  -2  61 N12G18    30.00R WCI  -6
SILVER BAY     FLURRIES   7  -4  61 NW8G18    29.99R WCI  -6
GRAND MARAIS     N/A      6  -5  60 NW13G22   30.01S WCI -10
G MARAIS ARPRT PTSUNNY   -2  -9  71 NW15G25   29.89R HAZE    WCI -22
$$
MNZ029>031-032-039>041-046>048-054>057-064-091700-
   West Central Minnesota

CITY           SKY/WX    TMP DP  RH WIND       PRES   REMARKS
FERGUS FALLS   CLOUDY     9   1  72 N12G21    30.29R WCI  -6
WHEATON        CLOUDY    12   7  79 NW14      30.29R WCI  -3
MORRIS         CLOUDY     9   3  78 NW22      30.23R WCI -11
ALEXANDRIA     CLOUDY     6  -2  69 NW16      30.18R WCI -12
ELBOW LAKE     CLOUDY     7   2  79 NW15G21   30.24R WCI -11
WADENA         SUNNY      3  -2  78 NW12      30.18S WCI -13
GLENWOOD       SUNNY      7   0  72 NW14      30.18S WCI -10
APPLETON       CLOUDY    10   3  72 NW21      30.26R WCI  -9
BENSON         CLOUDY     9   1  72 N17       30.23R WCI -10
ORTONVILLE     CLOUDY    10   3  72 N14       30.25S WCI  -5
MADISON        CLOUDY    12   3  67 NW17G23   30.27R WCI  -5
WILLMAR        FAIR       9   3  78 NW18G24   30.21R WCI -10
$$
MNZ033>034-036-042>043-049>051-058-059-091700-
   Central Minnesota

CITY           SKY/WX    TMP DP  RH WIND       PRES   REMARKS
ST CLOUD       SUNNY      7  -3  64 N13G22    30.15R WCI  -9
SAUK CENTRE    FAIR       5  -1  74 NW15      30.18R WCI -13
PAYNESVILLE    SUNNY      6   0  74 N15       30.18R WCI -11
AITKIN         SUNNY      7  -8  51 NW9G18    30.12R WCI  -7
PINE RIVER     MOSUNNY    1  -4  78 N21       30.19R WCI -20
BRAINERD       SUNNY      3  -5  69 N17       30.15R WCI -17
STAPLES        SUNNY      3  -4  72 NW15      30.17S WCI -15
LONG PRAIRIE   FAIR       3  -2  78 NW15      30.16S WCI -15
LITTLE FALLS   SUNNY      7  -4  61 NW9G16    30.17R WCI  -7
LITCHFIELD     SUNNY      9   1  72 N17G25    30.16S WCI -10
BUFFALO        SUNNY      9  -1  64 NW14G24   30.15R WCI  -8
MAPLE LAKE     SUNNY      9   1  69 NW13      30.15R WCI  -6
$$
MNZ037-044-045-052-053-091700-
   East Central Minnesota

CITY           SKY/WX    TMP DP  RH WIND       PRES   REMARKS
PRINCETON      SUNNY      9  -2  61 NW14      30.12R WCI  -8
MORA           SUNNY      7  -2  66 NW15      30.12R WCI -11
CAMBRIDGE      SUNNY      9  -2  61 NW14      30.10R WCI  -8
RUSH CITY      SUNNY      6  -2  67 NW10      30.11R WCI  -8
MOOSE LAKE     SUNNY      5  -6  61 N14       30.08R WCI -12
HINCKLEY       FAIR       7  -2  66 NW15G24   30.08S WCI -11
CLOQUET        SUNNY      1  -6  71 N16       30.04R WCI -18
MCGREGOR       SUNNY      5  -4  66 NW15G22   30.11R WCI -13
$$
MNZ071>073-080-081-089-090-097-098-091700-
   Southwest Minnesota

CITY           SKY/WX    TMP DP  RH WIND       PRES   REMARKS
MONTEVIDEO     CLOUDY    10   3  72 N22       30.25R WCI  -9
GRANITE FALLS  SUNNY     11   5  75 NW21G26   30.25R WCI  -7
CANBY          CLOUDY    14   6  72 NW15G23   30.26S WCI  -1
MARSHALL       PTSUNNY    9   2  73 NW23      30.22R WCI -11
REDWOOD FALLS  SUNNY      9   1  70 N17G25    30.21R WCI  -9
OLIVIA         SUNNY     10   3  72 NW18      30.20R WCI  -8
PIPESTONE      SUNNY      9  -6  52 N16G22    30.19S WCI  -9
WINDOM         SUNNY      7   1  78 NW26      30.15R WCI -16
WORTHINGTON    SUNNY      7  -2  66 NW18      30.19R WCI -12
JACKSON        SUNNY      9   0  66 NW25G31   30.15R WCI -13
TRACY          SUNNY     10   3  76 NW22G28   30.21R WCI -10
SLAYTON        SUNNY      6   2  82 NW16      30.18R WCI -12
$$
MNZ065>067-074>077-082>085-091>093-091700-
   South Central Minnesota

CITY           SKY/WX    TMP DP  RH WIND       PRES   REMARKS
MANKATO        SUNNY    N/A N/A N/A NW20G29   30.13R
NEW ULM        SUNNY      7   0  72 N21G28    30.16R WCI -13
ST JAMES       SUNNY      9   1  72 NW23G29   30.17R WCI -12
FAIRMONT       SUNNY      7   0  72 NW24      30.13R WCI -15
GLENCOE        SUNNY      9   2  73 NW16G24   30.15R WCI  -8
FARIBAULT      SUNNY      9   0  66 NW17      30.09S WCI -10
OWATONNA       SUNNY      7   0  72 NW22      30.08R WCI -14
WASECA         SUNNY      9   3  78 NW23G30   30.11R WCI -12
ALBERT LEA     PTSUNNY    7   0  72 NW15G23   30.06R WCI -11
$$
MNZ078>079-086>088-094>096-091700-
   Southeast Minnesota

CITY           SKY/WX    TMP DP  RH WIND       PRES   REMARKS
ROCHESTER      SUNNY      5  -2  72 N22       30.01R WCI -16
RED WING       SUNNY      9  -4  56 NW8G17    30.07S WCI  -4
STANTON        SUNNY      9   0  65 NW12G18   30.08R WCI  -6
DODGE CENTER   MOSUNNY    7   0  72 NW18G24   30.02S WCI -12
WINONA         MOSUNNY   10   0  61 N13G18    30.06S WCI  -5
AUSTIN         PTSUNNY    7   0  72 N16G26    30.04R WCI -11
PRESTON        CLOUDY     6  -1  72 NW14G21   30.00R HAZE    WCI -11
$$
ABBREVIATIONS USED IN REMARKS
   TC - TEMPERATURES IN CELSIUS
  WCI - WIND CHILL INDEX
   HX - HEAT INDEX
  VSB - VISIBILITY
$$



USA.gov is the U.S. government's official web portal to all federal, state and local government web resources and services.